{"data":{"norad_id":58970,"epoch":"2026-05-25T03:38:34.368288Z","epoch_age_seconds":57788,"freshness":"FRESH","line1":"1 58970U 24031F   26145.15178667  .00006028  00000+0  21540-3 0  9998","line2":"2 58970  53.1616 301.2803 0001065  74.3361 285.7757 15.30208991128242","mean_motion":15.30208991,"eccentricity":0.0001065,"inclination_deg":53.1616,"raan_deg":301.2803,"arg_perigee_deg":74.3361,"mean_anomaly_deg":285.7757,"bstar":0.0002154,"rev_number":12824,"period_min":94.104792774675,"perigee_km":474.45834490905,"apogee_km":475.91810318177,"semimajor_km":6853.3252240454,"source":"CELESTRAK","updated_at":"2026-05-25T13:38:18.794019Z"}}